This demonstration page uses our WeatherBlox Daily Observations layout. Learn more.

39.92423, -83.80882

Hourly Observations for July 30, 2016

Temp ( °F °C ) Dew Point ( °F °C ) Humidity (%) Winds ( mph kmh ) Pressure ( in mb ) Visibility ( mi km ) Precip ( " mm )
12:56 am 00:56 Cloudy with Mist and Fog 70 21.1 69 20.6 97 97 WNW 3 6 29.93 1013 6 9.65604 0 0
1:17 am 01:17 Partly Cloudy with Mist and Fog 70 21 68 20 94 94 W 3 6 29.91 1013 4 6.43736 0 0
1:56 am 01:56 Clear with Mist and Fog 69 20.6 68 20 96 96 E 5 7 N/A 3 4.82802 0 0
2:07 am 02:07 Clear with Mist and Fog 70 21 68 20 94 94 E 6 9 29.91 1013 2.5 4.02335 0 0
2:37 am 02:37 Clear with Mist and Fog 70 21 68 20 94 94 Calm 29.91 1013 3 4.82802 0 0
2:56 am 02:56 Mostly Clear with Mist and Fog 69 20.6 68 20 96 96 S 3 6 29.91 1013 4 6.43736 0 0
3:56 am 03:56 Clear with Mist and Fog 68 20 68 20 100 100 Calm 29.9 1013 4 6.43736 0 0
4:56 am 04:56 Clear with Mist and Fog 68 20 67 19.4 96 96 Calm N/A 3 4.82802 0 0
5:40 am 05:40 Clear with Mist and Fog 66 19 66 19 100 100 Calm 29.91 1013 1.75 2.816345 0 0
5:50 am 05:50 Clear with Mist and Fog 66 19 66 19 100 100 Calm 29.91 1013 0.75 1.207005 0 0
5:56 am 05:56 Clear with Fog 66 18.9 66 18.9 100 100 Calm 29.93 1013 0.5 0.80467 0 0
6:06 am 06:06 Clear with Fog 66 19 66 19 100 100 Calm 29.91 1013 0.25 0.402335 0 0
6:13 am 06:13 Clear with Fog 66 19 66 19 100 100 Calm 29.91 1013 0.5 0.80467 0 0
6:21 am 06:21 Mostly Cloudy with Fog 66 19 64 18 94 94 Calm 29.91 1013 0.25 0.402335 0 0
6:29 am 06:29 Mostly Cloudy with Fog 66 19 66 19 100 100 Calm 29.91 1013 0.25 0.402335 0 0
6:51 am 06:51 Cloudy with Mist and Fog 66 19 66 19 100 100 Calm 29.94 1014 0.75 1.207005 0 0
6:53 am 06:53 Cloudy with Mist and Fog 66 19 66 19 100 100 Calm 29.94 1014 1.25 2.011675 0 0
6:56 am 06:56 Cloudy with Mist and Fog 67 19.4 67 19.4 100 100 Calm 29.94 1014 1.25 2.011675 0 0
7:07 am 07:07 Cloudy with Mist and Fog 66 19 66 19 100 100 Calm 29.94 1014 2 3.21868 0 0
7:48 am 07:48 Cloudy with Mist and Fog 70 21 68 20 94 94 WSW 3 6 29.94 1014 3 4.82802 0 0
7:56 am 07:56 Cloudy with Mist and Fog 69 20.6 68 20 96 96 W 3 6 29.96 1014 3 4.82802 0 0
8:56 am 08:56 Cloudy with Mist and Fog 70 21.1 69 20.6 97 97 undefined N/A N/A 4 6.43736 0 0
9:56 am 09:56 Cloudy with Mist and Fog 72 22.2 69 20.6 91 91 WSW 5 7 29.96 1015 4 6.43736 0 0
10:56 am 10:56 Cloudy with Mist and Fog 73 22.8 70 21.1 90 90 WSW 5 7 29.97 1015 5 8.0467 0 0
11:10 am 11:10 Cloudy with Mist and Fog 73 23 70 21 89 89 WSW 5 7 29.97 1015 5 8.0467 0 0
11:56 am 11:56 Cloudy 77 25 72 22.2 85 85 WSW 8 13 29.98 1015 8 12.87472 0 0
12:17 pm 12:17 Mostly Cloudy 77 25 72 22 83 83 WSW 8 13 29.97 1015 10 16.0934 0 0
12:56 pm 12:56 Partly Cloudy 80 26.7 71 21.7 74 74 W 7 11 29.97 1015 10 16.0934 0 0
1:08 pm 13:08 Mostly Cloudy 81 27 70 21 70 70 VRB 6 9 29.94 1014 10 16.0934 0 0
1:17 pm 13:17 Mostly Cloudy 81 27 70 21 70 70 WSW 7 11 29.94 1014 10 16.0934 0 0
1:47 pm 13:47 Partly Cloudy 81 27 72 22 74 74 SW 5 7 29.94 1014 10 16.0934 0 0
1:56 pm 13:56 Mostly Cloudy 83 28.3 71 21.7 67 67 W 9 15 29.96 1014 10 16.0934 0 0
2:56 pm 14:56 Partly Cloudy 81 27.2 71 21.7 72 72 S 8 13 29.94 1014 10 16.0934 0 0
3:56 pm 15:56 Mostly Sunny 84 28.9 68 20 59 59 SW 9 15 29.93 1013 10 16.0934 0 0
4:56 pm 16:56 Mostly Sunny 85 29.4 68 20 57 57 WNW 7 11 29.91 1013 10 16.0934 0 0
5:56 pm 17:56 Mostly Sunny 84 28.9 67 19.4 57 57 W 7 11 29.93 1013 10 16.0934 0 0
6:56 pm 18:56 Sunny 84 28.9 68 20 59 59 WNW 8 13 29.92 1013 10 16.0934 0 0
7:56 pm 19:56 Mostly Cloudy 82 27.8 68 20 63 63 WNW 6 9 29.93 1013 10 16.0934 0 0
8:56 pm 20:56 Clear 77 25 68 20 74 74 NW 7 11 29.93 1014 10 16.0934 0 0
9:56 pm 21:56 Clear 74 23.3 67 19.4 79 79 WNW 6 9 29.95 1014 10 16.0934 0 0
10:56 pm 22:56 Clear 72 22.2 67 19.4 84 84 E 5 7 29.96 1015 10 16.0934 0 0
11:56 pm 23:56 Mostly Cloudy 71 21.7 67 19.4 87 87 SE 5 7 N/A 10 16.0934 0 0

Powered by AerisWeather